Terminal Aerodrome Forecast
Issued by NWS Blacksburg, VA

Home | Current Version | Previous Version | Text Only | Print | Product List | Glossary On
Versions: 1 2 3 4 5 6 7 8 9 10 11 12 13 14 15 16 17 18 19 20 21 22 23 24 25 26 27 28 29 30 31
000
FTUS41 KRNK 021129
TAFROA
TAF
KROA 021129Z 0212/0312 00000KT 3SM BR SCT003
      TEMPO 0212/0213 1 1/2SM BR BKN003
     FM021430 VRB02KT P6SM FEW020
     FM022300 13004KT P6SM SCT060
     FM030500 00000KT 6SM BR BKN060
     FM030800 00000KT 4SM BR BKN020=

USA.gov is the U.S. government's official web portal to all federal, state and local government web resources and services.